ARKTIKA-M 2

Last updated on Sun Oct 06 2024 00:02:18 GMT+0000 (Coordinated Universal Time)

1 58584U 23198A 24279.14861202 .00000102 00000+0 00000+0 0 9992 2 58584 63.2453 222.7946 6939372 269.6636 17.5763 2.00612150 5881
UTC large
Height (km)
Speed (km/s)
/
Latitude / Longitude
Inclination (degrees)
Orbital Period (minutes)
Azimuth
Elevation
Range (km)
Doppler Factor

Next 0 passes for location: London (51.5072 / 0.1276)

Sorry there are no passes over London.